| time (UTC) | temp F | wind direction | speed knots | gust knots | rain 1hr in | rain 24hr in | rain mn in | humidity % | barometer mb |
| 20260509000510 | 66 | 105 | 0.0 | 1.7 | 0.00 | 0.00 | 0.00 | 33 | 1011.1 |
| 20260509000037 | 66 | 98 | 0.0 | 2.6 | 0.00 | 0.00 | 0.00 | 33 | 1011.2 |
| 20260508235507 | 66 | 95 | 0.0 | 2.6 | 0.00 | 0.00 | 0.00 | 33 | 1011.3 |
| 20260508235010 | 66 | 97 | 0.0 | 1.7 | 0.00 | 0.00 | 0.00 | 32 | 1011.5 |
| 20260508234527 | 67 | 108 | 0.0 | 1.7 | 0.00 | 0.00 | 0.00 | 31 | 1011.6 |
| 20260508234012 | 67 | 84 | 0.0 | 1.7 | 0.00 | 0.00 | 0.00 | 31 | 1011.6 |
| 20260508233508 | 67 | 69 | 0.0 | 2.6 | 0.00 | 0.00 | 0.00 | 31 | 1011.6 |
| 20260508233015 | 67 | 90 | 0.9 | 2.6 | 0.00 | 0.00 | 0.00 | 31 | 1011.7 |
| 20260508232509 | 67 | 130 | 0.9 | 1.7 | 0.00 | 0.00 | 0.00 | 31 | 1011.6 |
| 20260508232009 | 67 | 114 | 0.0 | 2.6 | 0.00 | 0.00 | 0.00 | 30 | 1011.7 |
| 20260508231520 | 68 | 113 | 0.0 | 2.6 | 0.00 | 0.00 | 0.00 | 29 | 1011.5 |
| 20260508231009 | 68 | 92 | 0.9 | 2.6 | 0.00 | 0.00 | 0.00 | 30 | 1011.6 |
| 20260508230507 | 68 | 96 | 0.0 | 2.6 | 0.00 | 0.00 | 0.00 | 30 | 1011.6 |
| 20260508230026 | 68 | 128 | 0.9 | 2.6 | 0.00 | 0.00 | 0.00 | 29 | 1011.5 |
| 20260508225510 | 68 | 105 | 0.9 | 6.1 | 0.00 | 0.00 | 0.00 | 29 | 1011.6 |
| 20260508225013 | 68 | 102 | 0.0 | 6.1 | 0.00 | 0.00 | 0.00 | 29 | 1011.6 |
| 20260508224547 | 68 | 51 | 0.0 | 5.2 | 0.00 | 0.00 | 0.00 | 29 | 1011.6 |
| 20260508224008 | 68 | 76 | 0.9 | 3.5 | 0.00 | 0.00 | 0.00 | 30 | 1011.5 |
| 20260508223509 | 68 | 84 | 0.9 | 3.5 | 0.00 | 0.00 | 0.00 | 30 | 1011.5 |
| 20260508223029 | 68 | 132 | 0.9 | 3.5 | 0.00 | 0.00 | 0.00 | 28 | 1011.5 |
| 20260508222510 | 68 | 101 | 0.9 | 5.2 | 0.00 | 0.00 | 0.00 | 28 | 1011.6 |
| 20260508222006 | 68 | 98 | 0.9 | 5.2 | 0.00 | 0.00 | 0.00 | 28 | 1011.7 |
| 20260508221517 | 69 | 82 | 0.9 | 3.5 | 0.00 | 0.00 | 0.00 | 30 | 1011.6 |
| 20260508221008 | 69 | 34 | 0.9 | 3.5 | 0.00 | 0.00 | 0.00 | 27 | 1011.6 |
| 20260508220506 | 69 | 101 | 0.9 | 3.5 | 0.00 | 0.00 | 0.00 | 29 | 1011.6 |
| 20260508220031 | 69 | 60 | 0.0 | 2.6 | 0.00 | 0.00 | 0.00 | 30 | 1011.5 |
| 20260508215507 | 69 | 82 | 0.9 | 7.8 | 0.00 | 0.00 | 0.00 | 28 | 1011.6 |
| 20260508215013 | 69 | 65 | 1.7 | 7.8 | 0.00 | 0.00 | 0.00 | 28 | 1011.4 |
| 20260508214535 | 69 | 62 | 0.0 | 6.1 | 0.00 | 0.00 | 0.00 | 31 | 1011.2 |
| 20260508214009 | 69 | 142 | 0.9 | 6.1 | 0.00 | 0.00 | 0.00 | 27 | 1011.2 |
| 20260508213510 | 69 | 101 | 0.0 | 5.2 | 0.00 | 0.00 | 0.00 | 30 | 1011.2 |
| 20260508213032 | 69 | 65 | 0.9 | 3.5 | 0.00 | 0.00 | 0.00 | 28 | 1011.3 |
| 20260508212510 | 69 | 69 | 0.9 | 7.8 | 0.00 | 0.00 | 0.00 | 28 | 1011.5 |
| 20260508212009 | 69 | 112 | 0.9 | 7.8 | 0.00 | 0.00 | 0.00 | 29 | 1011.6 |
| 20260508211527 | 69 | 300 | 0.9 | 5.2 | 0.00 | 0.00 | 0.00 | 30 | 1011.6 |
| 20260508211011 | 70 | 76 | 1.7 | 5.2 | 0.00 | 0.00 | 0.00 | 27 | 1011.7 |
| 20260508210510 | 70 | 67 | 0.9 | 4.3 | 0.00 | 0.00 | 0.00 | 31 | 1011.8 |
| 20260508210020 | 70 | 98 | 0.9 | 4.3 | 0.00 | 0.00 | 0.00 | 28 | 1011.8 |
| 20260508205507 | 70 | 62 | 0.0 | 7.0 | 0.00 | 0.00 | 0.00 | 28 | 1012.0 |
| 20260508205009 | 71 | 93 | 1.7 | 7.0 | 0.00 | 0.00 | 0.00 | 27 | 1011.9 |
| 20260508204524 | 71 | 89 | 0.9 | 4.3 | 0.00 | 0.00 | 0.00 | 30 | 1012.0 |
| 20260508204006 | 71 | 100 | 1.7 | 7.0 | 0.00 | 0.00 | 0.00 | 27 | 1012.1 |
| 20260508203514 | 71 | 63 | 1.7 | 7.0 | 0.00 | 0.00 | 0.00 | 30 | 1012.2 |
| 20260508203028 | 71 | 82 | 0.0 | 4.3 | 0.00 | 0.00 | 0.00 | 30 | 1012.4 |
| 20260508202510 | 71 | 103 | 0.9 | 5.2 | 0.00 | 0.00 | 0.00 | 30 | 1012.6 |
| 20260508202012 | 71 | 132 | 1.7 | 5.2 | 0.00 | 0.00 | 0.00 | 27 | 1012.6 |
| 20260508201526 | 71 | 89 | 1.7 | 5.2 | 0.00 | 0.00 | 0.00 | 29 | 1012.5 |
| 20260508201008 | 71 | 91 | 0.9 | 5.2 | 0.00 | 0.00 | 0.00 | 30 | 1012.6 |
| 20260508200507 | 71 | 60 | 0.9 | 5.2 | 0.00 | 0.00 | 0.00 | 30 | 1012.6 |
| 20260508200041 | 70 | 118 | 0.9 | 7.8 | 0.00 | 0.00 | 0.00 | 27 | 1012.4 |
| 20260508195513 | 70 | 25 | 2.6 | 7.8 | 0.00 | 0.00 | 0.00 | 28 | 1012.4 |
| 20260508195013 | 70 | 89 | 0.9 | 4.3 | 0.00 | 0.00 | 0.00 | 34 | 1012.5 |
| 20260508194520 | 70 | 81 | 0.0 | 5.2 | 0.00 | 0.00 | 0.00 | 27 | 1012.5 |
| 20260508194011 | 70 | 58 | 0.0 | 5.2 | 0.00 | 0.00 | 0.00 | 28 | 1012.6 |
| 20260508193509 | 70 | 34 | 0.0 | 4.3 | 0.00 | 0.00 | 0.00 | 30 | 1012.7 |
| 20260508193004 | 70 | 138 | 1.7 | 5.2 | 0.00 | 0.00 | 0.00 | 27 | 1012.7 |
| 20260508192510 | 69 | 80 | 1.7 | 5.2 | 0.00 | 0.00 | 0.00 | 27 | 1012.8 |
| 20260508192005 | 70 | 46 | 1.7 | 5.2 | 0.00 | 0.00 | 0.00 | 27 | 1012.8 |
| 20260508191508 | 69 | 25 | 0.9 | 3.5 | 0.00 | 0.00 | 0.00 | 32 | 1012.8 |
| 20260508191003 | 69 | 174 | 0.9 | 4.3 | 0.00 | 0.00 | 0.00 | 29 | 1012.9 |
| 20260508190508 | 69 | 58 | 0.9 | 4.3 | 0.00 | 0.00 | 0.00 | 27 | 1013.1 |
| 20260508190018 | 69 | 46 | 0.9 | 3.5 | 0.00 | 0.00 | 0.00 | 30 | 1013.1 |
| 20260508185507 | 68 | 74 | 1.7 | 3.5 | 0.00 | 0.00 | 0.00 | 28 | 1013.1 |
| 20260508185010 | 68 | 63 | 0.9 | 7.0 | 0.00 | 0.00 | 0.00 | 28 | 1013.3 |
| 20260508184526 | 68 | 71 | 0.9 | 7.0 | 0.00 | 0.00 | 0.00 | 30 | 1013.3 |
| 20260508184009 | 68 | 102 | 0.9 | 3.5 | 0.00 | 0.00 | 0.00 | 32 | 1013.4 |
| 20260508183508 | 68 | 49 | 0.9 | 6.1 | 0.00 | 0.00 | 0.00 | 30 | 1013.5 |
| 20260508183025 | 68 | 115 | 1.7 | 7.0 | 0.00 | 0.00 | 0.00 | 28 | 1013.5 |
| 20260508182507 | 68 | 61 | 0.9 | 7.0 | 0.00 | 0.00 | 0.00 | 28 | 1013.7 |
| 20260508182010 | 67 | 130 | 0.9 | 5.2 | 0.00 | 0.00 | 0.00 | 32 | 1013.8 |
| 20260508181508 | 68 | 65 | 0.9 | 5.2 | 0.00 | 0.00 | 0.00 | 29 | 1014.0 |
| 20260508181005 | 68 | 34 | 0.0 | 6.1 | 0.00 | 0.00 | 0.00 | 29 | 1014.0 |
| 20260508180507 | 68 | 87 | 1.7 | 6.1 | 0.00 | 0.00 | 0.00 | 28 | 1014.2 |
| 20260508180012 | 68 | 85 | 0.9 | 4.3 | 0.00 | 0.00 | 0.00 | 32 | 1014.2 |
| 20260508175507 | 67 | 128 | 0.9 | 4.3 | 0.00 | 0.00 | 0.00 | 37 | 1014.3 |
| 20260508175010 | 67 | 91 | 0.9 | 3.5 | 0.00 | 0.00 | 0.00 | 34 | 1014.4 |
| 20260508174522 | 67 | 107 | 0.9 | 3.5 | 0.00 | 0.00 | 0.00 | 36 | 1014.5 |
| 20260508174013 | 67 | 114 | 0.9 | 6.1 | 0.00 | 0.00 | 0.00 | 31 | 1014.7 |
| 20260508173509 | 66 | 68 | 0.9 | 6.1 | 0.00 | 0.00 | 0.00 | 33 | 1014.9 |
| 20260508173026 | 66 | 23 | 0.9 | 6.1 | 0.00 | 0.00 | 0.00 | 32 | 1014.9 |
| 20260508172510 | 66 | 107 | 1.7 | 4.3 | 0.00 | 0.00 | 0.00 | 34 | 1015.0 |
| 20260508172010 | 66 | 101 | 0.9 | 3.5 | 0.00 | 0.00 | 0.00 | 34 | 1015.2 |
| 20260508171534 | 66 | 74 | 0.9 | 4.3 | 0.00 | 0.00 | 0.00 | 32 | 1015.2 |
| 20260508171024 | 66 | 80 | 0.9 | 4.3 | 0.00 | 0.00 | 0.00 | 35 | 1015.3 |
| 20260508170507 | 66 | 51 | 0.9 | 4.3 | 0.00 | 0.00 | 0.00 | 36 | 1015.4 |
| 20260508170009 | 66 | 115 | 0.0 | 3.5 | 0.00 | 0.00 | 0.00 | 34 | 1015.5 |
| 20260508165503 | 65 | 128 | 0.9 | 3.5 | 0.00 | 0.00 | 0.00 | 35 | 1015.6 |
| 20260508165004 | 65 | 96 | 0.0 | 2.6 | 0.00 | 0.00 | 0.00 | 35 | 1015.8 |
| 20260508164518 | 65 | 98 | 0.0 | 4.3 | 0.00 | 0.00 | 0.00 | 35 | 1015.9 |
| 20260508164008 | 64 | 51 | 1.7 | 4.3 | 0.00 | 0.00 | 0.00 | 34 | 1016.0 |
| 20260508163509 | 64 | 44 | 0.0 | 4.3 | 0.00 | 0.00 | 0.00 | 39 | 1016.1 |
| 20260508163023 | 64 | 30 | 0.9 | 4.3 | 0.00 | 0.00 | 0.00 | 35 | 1016.1 |
| 20260508162510 | 64 | 105 | 0.9 | 2.6 | 0.00 | 0.00 | 0.00 | 37 | 1016.2 |
| 20260508162011 | 64 | 94 | 0.9 | 2.6 | 0.00 | 0.00 | 0.00 | 38 | 1016.3 |
| 20260508161532 | 63 | 78 | 0.0 | 3.5 | 0.00 | 0.00 | 0.00 | 38 | 1016.3 |
| 20260508161010 | 63 | 93 | 0.9 | 3.5 | 0.00 | 0.00 | 0.00 | 37 | 1016.3 |
| 20260508160510 | 63 | 99 | 0.9 | 3.5 | 0.00 | 0.00 | 0.00 | 38 | 1016.4 |
| 20260508160030 | 63 | 101 | 0.9 | 3.5 | 0.00 | 0.00 | 0.00 | 37 | 1016.5 |
| 20260508155511 | 62 | 157 | 0.9 | 3.5 | 0.00 | 0.00 | 0.00 | 38 | 1016.5 |
| 20260508155009 | 62 | 86 | 0.9 | 2.6 | 0.00 | 0.00 | 0.00 | 39 | 1016.5 |
| 20260508154512 | 62 | 99 | 0.0 | 2.6 | 0.00 | 0.00 | 0.00 | 39 | 1016.6 |
| 20260508154007 | 62 | 74 | 0.0 | 3.5 | 0.00 | 0.00 | 0.00 | 38 | 1016.7 |
| 20260508153507 | 62 | 74 | 0.9 | 3.5 | 0.00 | 0.00 | 0.00 | 38 | 1016.9 |
| 20260508153016 | 61 | 105 | 0.0 | 3.5 | 0.00 | 0.00 | 0.00 | 39 | 1016.9 |
| 20260508152507 | 61 | 125 | 0.0 | 4.3 | 0.00 | 0.00 | 0.00 | 42 | 1016.9 |
| 20260508152008 | 61 | 102 | 0.9 | 4.3 | 0.00 | 0.00 | 0.00 | 42 | 1017.1 |
| 20260508151523 | 60 | 68 | 0.0 | 4.3 | 0.00 | 0.00 | 0.00 | 43 | 1017.1 |
| 20260508151019 | 60 | 105 | 0.0 | 4.3 | 0.00 | 0.00 | 0.00 | 42 | 1017.1 |
| 20260508150513 | 60 | 86 | 0.0 | 2.6 | 0.00 | 0.00 | 0.00 | 42 | 1017.1 |
| 20260508150033 | 59 | 109 | 0.0 | 2.6 | 0.00 | 0.00 | 0.00 | 42 | 1017.1 |
| 20260508145508 | 59 | 88 | 0.0 | 4.3 | 0.00 | 0.00 | 0.00 | 42 | 1017.1 |
| 20260508145010 | 59 | 110 | 0.9 | 4.3 | 0.00 | 0.00 | 0.00 | 44 | 1017.1 |
| 20260508144538 | 59 | 105 | 0.9 | 3.5 | 0.00 | 0.00 | 0.00 | 42 | 1017.1 |
| 20260508144008 | 58 | 142 | 0.9 | 3.5 | 0.00 | 0.00 | 0.00 | 43 | 1017.1 |
| 20260508143509 | 58 | 112 | 0.0 | 2.6 | 0.00 | 0.00 | 0.00 | 41 | 1017.1 |
| 20260508143025 | 58 | 109 | 0.0 | 2.6 | 0.00 | 0.00 | 0.00 | 42 | 1017.1 |
| 20260508142507 | 58 | 92 | 0.0 | 2.6 | 0.00 | 0.00 | 0.00 | 44 | 1017.1 |
| 20260508142008 | 58 | 103 | 0.0 | 2.6 | 0.00 | 0.00 | 0.00 | 43 | 1017.1 |
| 20260508141524 | 57 | 129 | 0.0 | 2.6 | 0.00 | 0.00 | 0.00 | 44 | 1017.1 |
| 20260508141012 | 57 | 51 | 0.0 | 2.6 | 0.00 | 0.00 | 0.00 | 45 | 1017.1 |
| 20260508140506 | 57 | 90 | 0.0 | 2.6 | 0.00 | 0.00 | 0.00 | 45 | 1017.1 |
| 20260508140031 | 56 | 105 | 0.0 | 3.5 | 0.00 | 0.00 | 0.00 | 44 | 1017.2 |
| 20260508135512 | 56 | 107 | 0.0 | 3.5 | 0.00 | 0.00 | 0.00 | 45 | 1017.1 |
| 20260508135011 | 56 | 111 | 0.0 | 2.6 | 0.00 | 0.00 | 0.00 | 47 | 1017.2 |
| 20260508134506 | 55 | 111 | 0.0 | 2.6 | 0.00 | 0.00 | 0.00 | 48 | 1017.2 |
| 20260508134006 | 55 | 88 | 0.0 | 2.6 | 0.00 | 0.00 | 0.00 | 49 | 1017.1 |
| 20260508133506 | 54 | 86 | 0.0 | 2.6 | 0.00 | 0.00 | 0.00 | 49 | 1017.1 |
| 20260508133013 | 54 | 97 | 0.0 | 1.7 | 0.00 | 0.00 | 0.00 | 51 | 1017.1 |
| 20260508132502 | 53 | 102 | 0.0 | 3.5 | 0.00 | 0.00 | 0.00 | 51 | 1017.1 |
| 20260508132002 | 53 | 85 | 0.0 | 3.5 | 0.00 | 0.00 | 0.00 | 52 | 1017.1 |
| 20260508131502 | 53 | 107 | 0.0 | 0.9 | 0.00 | 0.00 | 0.00 | 53 | 1017.0 |
| 20260508131003 | 52 | 111 | 0.0 | 1.7 | 0.00 | 0.00 | 0.00 | 53 | 1017.0 |
| 20260508130500 | 52 | 94 | 0.0 | 1.7 | 0.00 | 0.00 | 0.00 | 52 | 1017.0 |
| 20260508130002 | 52 | 97 | 0.0 | 2.6 | 0.00 | 0.00 | 0.00 | 52 | 1017.0 |
| 20260508125503 | 51 | 113 | 0.0 | 2.6 | 0.00 | 0.00 | 0.00 | 53 | 1017.0 |
| 20260508125002 | 51 | 119 | 0.0 | 2.6 | 0.00 | 0.00 | 0.00 | 54 | 1017.0 |
| 20260508124505 | 50 | 111 | 0.0 | 0.9 | 0.00 | 0.00 | 0.00 | 55 | 1017.0 |
| 20260508124007 | 49 | 103 | 0.0 | 0.9 | 0.00 | 0.00 | 0.00 | 57 | 1017.0 |
| 20260508123502 | 48 | 103 | 0.0 | 1.7 | 0.00 | 0.00 | 0.00 | 60 | 1017.0 |
| 20260508123010 | 48 | 107 | 0.0 | 1.7 | 0.00 | 0.00 | 0.00 | 61 | 1017.0 |
| 20260508122505 | 47 | 129 | 0.0 | 1.7 | 0.00 | 0.00 | 0.00 | 64 | 1017.0 |
| 20260508122008 | 45 | 166 | 0.0 | 0.0 | 0.00 | 0.00 | 0.00 | 68 | 1016.9 |
| 20260508121519 | 45 | 166 | 0.0 | 0.0 | 0.00 | 0.00 | 0.00 | 70 | 1016.8 |
| 20260508121002 | 44 | 178 | 0.0 | 0.0 | 0.00 | 0.00 | 0.00 | 72 | 1016.9 |
| 20260508120501 | 43 | 178 | 0.0 | 0.0 | 0.00 | 0.00 | 0.00 | 75 | 1016.8 |
| 20260508120001 | 43 | 178 | 0.0 | 0.0 | 0.00 | 0.00 | 0.00 | 76 | 1016.8 |
| 20260508115502 | 43 | 178 | 0.0 | 0.0 | 0.00 | 0.00 | 0.00 | 77 | 1016.8 |
| 20260508115002 | 42 | 178 | 0.0 | 0.0 | 0.00 | 0.00 | 0.00 | 78 | 1016.9 |
| 20260508114507 | 42 | 178 | 0.0 | 0.0 | 0.00 | 0.00 | 0.00 | 79 | 1016.9 |
| 20260508114006 | 42 | 178 | 0.0 | 0.0 | 0.00 | 0.00 | 0.00 | 79 | 1016.7 |
| 20260508113505 | 42 | 178 | 0.0 | 0.0 | 0.00 | 0.00 | 0.00 | 79 | 1016.6 |
| 20260508113008 | 41 | 178 | 0.0 | 0.0 | 0.00 | 0.00 | 0.00 | 79 | 1016.5 |
| 20260508112503 | 41 | 178 | 0.0 | 0.0 | 0.00 | 0.00 | 0.00 | 79 | 1016.4 |
| 20260508112006 | 41 | 178 | 0.0 | 0.0 | 0.00 | 0.00 | 0.00 | 80 | 1016.4 |
| 20260508111512 | 41 | 178 | 0.0 | 0.0 | 0.00 | 0.00 | 0.00 | 79 | 1016.4 |
| 20260508111008 | 41 | 178 | 0.0 | 0.0 | 0.00 | 0.00 | 0.00 | 79 | 1016.3 |
| 20260508110504 | 41 | 178 | 0.0 | 0.0 | 0.00 | 0.00 | 0.00 | 78 | 1016.2 |
| 20260508110016 | 41 | 178 | 0.0 | 0.0 | 0.00 | 0.00 | 0.00 | 78 | 1016.2 |
| 20260508105506 | 42 | 178 | 0.0 | 0.0 | 0.00 | 0.00 | 0.00 | 77 | 1016.1 |
| 20260508105003 | 42 | 178 | 0.0 | 0.0 | 0.00 | 0.00 | 0.00 | 76 | 1016.0 |
| 20260508104503 | 42 | 178 | 0.0 | 0.0 | 0.00 | 0.00 | 0.00 | 76 | 1016.1 |
| 20260508104001 | 42 | 178 | 0.0 | 0.0 | 0.00 | 0.00 | 0.00 | 76 | 1016.1 |
| 20260508103502 | 42 | 178 | 0.0 | 0.0 | 0.00 | 0.00 | 0.00 | 75 | 1016.1 |
| 20260508103005 | 42 | 178 | 0.0 | 0.0 | 0.00 | 0.00 | 0.00 | 76 | 1016.0 |
| 20260508102502 | 42 | 178 | 0.0 | 0.0 | 0.00 | 0.00 | 0.00 | 74 | 1016.0 |
| 20260508102006 | 42 | 178 | 0.0 | 0.0 | 0.00 | 0.00 | 0.00 | 74 | 1016.0 |
| 20260508101510 | 42 | 178 | 0.0 | 0.0 | 0.00 | 0.00 | 0.00 | 74 | 1015.9 |
| 20260508101007 | 42 | 178 | 0.0 | 0.0 | 0.00 | 0.00 | 0.00 | 71 | 1015.9 |
| 20260508100505 | 43 | 178 | 0.0 | 0.0 | 0.00 | 0.00 | 0.00 | 71 | 1015.8 |
| 20260508100011 | 43 | 178 | 0.0 | 0.0 | 0.00 | 0.00 | 0.00 | 72 | 1015.8 |
| 20260508095513 | 43 | 178 | 0.0 | 0.0 | 0.00 | 0.00 | 0.00 | 75 | 1015.8 |
| 20260508095007 | 43 | 178 | 0.0 | 0.0 | 0.00 | 0.00 | 0.00 | 75 | 1015.9 |
| 20260508094518 | 43 | 178 | 0.0 | 0.0 | 0.00 | 0.00 | 0.00 | 76 | 1016.0 |
| 20260508094009 | 43 | 178 | 0.0 | 0.0 | 0.00 | 0.00 | 0.00 | 73 | 1016.0 |
| 20260508093503 | 43 | 178 | 0.0 | 0.0 | 0.00 | 0.00 | 0.00 | 72 | 1016.0 |
| 20260508093001 | 43 | 178 | 0.0 | 0.0 | 0.00 | 0.00 | 0.00 | 73 | 1016.0 |
| 20260508092504 | 43 | 178 | 0.0 | 0.0 | 0.00 | 0.00 | 0.00 | 75 | 1016.0 |
| 20260508092002 | 43 | 178 | 0.0 | 0.0 | 0.00 | 0.00 | 0.00 | 76 | 1016.0 |
| 20260508091504 | 43 | 178 | 0.0 | 0.0 | 0.00 | 0.00 | 0.00 | 74 | 1016.0 |
| 20260508091010 | 43 | 178 | 0.0 | 0.0 | 0.00 | 0.00 | 0.00 | 73 | 1016.0 |
| 20260508090507 | 43 | 178 | 0.0 | 0.0 | 0.00 | 0.00 | 0.00 | 76 | 1016.1 |
| 20260508090010 | 42 | 178 | 0.0 | 0.0 | 0.00 | 0.00 | 0.00 | 76 | 1016.1 |
| 20260508085505 | 42 | 178 | 0.0 | 0.0 | 0.00 | 0.00 | 0.00 | 73 | 1016.1 |
| 20260508085005 | 42 | 178 | 0.0 | 0.0 | 0.00 | 0.00 | 0.00 | 73 | 1016.1 |
| 20260508084515 | 42 | 178 | 0.0 | 0.0 | 0.00 | 0.00 | 0.00 | 74 | 1016.0 |
| 20260508084006 | 42 | 178 | 0.0 | 0.0 | 0.00 | 0.00 | 0.00 | 74 | 1016.0 |
| 20260508083506 | 42 | 178 | 0.0 | 0.0 | 0.00 | 0.00 | 0.00 | 76 | 1016.1 |
| 20260508083019 | 42 | 178 | 0.0 | 0.0 | 0.00 | 0.00 | 0.00 | 76 | 1016.0 |
| 20260508082513 | 42 | 178 | 0.0 | 0.0 | 0.00 | 0.00 | 0.00 | 75 | 1016.2 |
| 20260508082011 | 42 | 178 | 0.0 | 0.0 | 0.00 | 0.00 | 0.00 | 75 | 1016.0 |
| 20260508081505 | 42 | 178 | 0.0 | 0.0 | 0.00 | 0.00 | 0.00 | 75 | 1015.9 |
| 20260508081004 | 42 | 178 | 0.0 | 0.0 | 0.00 | 0.00 | 0.00 | 76 | 1016.0 |
| 20260508080504 | 42 | 178 | 0.0 | 0.0 | 0.00 | 0.00 | 0.00 | 78 | 1016.0 |
| 20260508080008 | 42 | 178 | 0.0 | 0.0 | 0.00 | 0.00 | 0.00 | 79 | 1015.9 |
| 20260508075506 | 42 | 178 | 0.0 | 0.0 | 0.00 | 0.00 | 0.00 | 78 | 1016.0 |
| 20260508075003 | 42 | 178 | 0.0 | 0.0 | 0.00 | 0.00 | 0.00 | 77 | 1016.0 |
| 20260508074517 | 42 | 178 | 0.0 | 0.0 | 0.00 | 0.00 | 0.00 | 77 | 1016.0 |
| 20260508074009 | 42 | 178 | 0.0 | 0.0 | 0.00 | 0.00 | 0.00 | 77 | 1016.0 |
| 20260508073506 | 42 | 178 | 0.0 | 0.0 | 0.00 | 0.00 | 0.00 | 76 | 1015.9 |
| 20260508073018 | 42 | 178 | 0.0 | 0.0 | 0.00 | 0.00 | 0.00 | 76 | 1015.9 |
| 20260508072508 | 42 | 178 | 0.0 | 0.0 | 0.00 | 0.00 | 0.00 | 76 | 1016.0 |
| 20260508072010 | 42 | 178 | 0.0 | 0.0 | 0.00 | 0.00 | 0.00 | 79 | 1016.0 |
| 20260508071522 | 42 | 178 | 0.0 | 0.0 | 0.00 | 0.00 | 0.00 | 80 | 1016.1 |
| 20260508071007 | 42 | 178 | 0.0 | 0.9 | 0.00 | 0.00 | 0.00 | 79 | 1016.1 |
| 20260508070516 | 42 | 178 | 0.0 | 0.9 | 0.00 | 0.00 | 0.00 | 79 | 1016.0 |
| 20260508070026 | 42 | 178 | 0.0 | 0.9 | 0.00 | 0.00 | 0.00 | 80 | 1016.1 |
| 20260508065503 | 42 | 178 | 0.0 | 0.0 | 0.00 | 0.00 | 0.00 | 79 | 1016.1 |
| 20260508065003 | 42 | 178 | 0.0 | 0.0 | 0.00 | 0.00 | 0.00 | 79 | 1016.0 |
| 20260508064534 | 43 | 178 | 0.0 | 0.0 | 0.00 | 0.00 | 0.00 | 79 | 1016.0 |
| 20260508064005 | 43 | 178 | 0.0 | 0.0 | 0.00 | 0.00 | 0.00 | 79 | 1016.0 |
| 20260508063504 | 43 | 178 | 0.0 | 0.0 | 0.00 | 0.00 | 0.00 | 79 | 1016.0 |
| 20260508063016 | 43 | 178 | 0.0 | 0.0 | 0.00 | 0.00 | 0.00 | 79 | 1016.0 |
| 20260508062510 | 43 | 178 | 0.0 | 0.0 | 0.00 | 0.00 | 0.00 | 78 | 1015.9 |
| 20260508062006 | 43 | 178 | 0.0 | 0.0 | 0.00 | 0.00 | 0.00 | 78 | 1016.0 |
| 20260508061518 | 43 | 178 | 0.0 | 0.0 | 0.00 | 0.00 | 0.00 | 77 | 1016.0 |
| 20260508061011 | 44 | 178 | 0.0 | 0.0 | 0.00 | 0.00 | 0.00 | 77 | 1016.0 |
| 20260508060508 | 44 | 178 | 0.0 | 0.0 | 0.00 | 0.00 | 0.00 | 76 | 1016.1 |
| 20260508060024 | 43 | 178 | 0.0 | 0.0 | 0.00 | 0.00 | 0.00 | 75 | 1016.1 |
| 20260508055509 | 43 | 178 | 0.0 | 0.0 | 0.00 | 0.00 | 0.00 | 75 | 1016.1 |
| 20260508055008 | 44 | 178 | 0.0 | 0.0 | 0.00 | 0.00 | 0.00 | 75 | 1016.3 |
| 20260508054543 | 44 | 178 | 0.0 | 0.0 | 0.00 | 0.00 | 0.00 | 75 | 1016.4 |
| 20260508054005 | 44 | 178 | 0.0 | 0.0 | 0.00 | 0.00 | 0.00 | 74 | 1016.4 |
| 20260508053505 | 44 | 178 | 0.0 | 0.0 | 0.00 | 0.00 | 0.00 | 76 | 1016.4 |
| 20260508053010 | 44 | 178 | 0.0 | 0.0 | 0.00 | 0.00 | 0.00 | 76 | 1016.4 |
| 20260508052504 | 44 | 178 | 0.0 | 0.0 | 0.00 | 0.00 | 0.00 | 76 | 1016.4 |
| 20260508052008 | 44 | 178 | 0.0 | 0.0 | 0.00 | 0.00 | 0.00 | 76 | 1016.4 |
| 20260508051523 | 44 | 178 | 0.0 | 0.0 | 0.00 | 0.00 | 0.00 | 76 | 1016.4 |
| 20260508051008 | 44 | 178 | 0.0 | 0.0 | 0.00 | 0.00 | 0.00 | 74 | 1016.3 |
| 20260508050505 | 44 | 178 | 0.0 | 0.0 | 0.00 | 0.00 | 0.00 | 74 | 1016.3 |
| 20260508050032 | 44 | 178 | 0.0 | 0.0 | 0.00 | 0.00 | 0.00 | 74 | 1016.2 |
| 20260508045507 | 45 | 178 | 0.0 | 0.0 | 0.00 | 0.00 | 0.00 | 74 | 1016.3 |
| 20260508045007 | 45 | 178 | 0.0 | 0.0 | 0.00 | 0.00 | 0.00 | 73 | 1016.2 |
| 20260508044528 | 45 | 178 | 0.0 | 0.0 | 0.00 | 0.00 | 0.00 | 73 | 1016.1 |
| 20260508044012 | 45 | 178 | 0.0 | 0.0 | 0.00 | 0.00 | 0.00 | 73 | 1016.1 |
| 20260508043508 | 45 | 178 | 0.0 | 0.0 | 0.00 | 0.00 | 0.00 | 73 | 1016.1 |
| 20260508043036 | 45 | 178 | 0.0 | 0.0 | 0.00 | 0.00 | 0.00 | 72 | 1016.1 |
| 20260508042510 | 45 | 178 | 0.0 | 0.0 | 0.00 | 0.00 | 0.00 | 72 | 1016.1 |
| 20260508042007 | 46 | 178 | 0.0 | 0.0 | 0.00 | 0.00 | 0.00 | 71 | 1016.1 |
| 20260508041511 | 46 | 178 | 0.0 | 0.0 | 0.00 | 0.00 | 0.00 | 70 | 1016.1 |
| 20260508041007 | 46 | 178 | 0.0 | 0.0 | 0.00 | 0.00 | 0.00 | 70 | 1016.1 |
| 20260508040508 | 46 | 178 | 0.0 | 0.0 | 0.00 | 0.00 | 0.00 | 69 | 1016.1 |
| 20260508040017 | 46 | 178 | 0.0 | 0.0 | 0.00 | 0.00 | 0.00 | 68 | 1016.2 |
| 20260508035515 | 46 | 178 | 0.0 | 0.0 | 0.00 | 0.00 | 0.00 | 69 | 1016.1 |
| 20260508035010 | 46 | 178 | 0.0 | 0.0 | 0.00 | 0.00 | 0.00 | 67 | 1016.2 |
| 20260508034525 | 47 | 178 | 0.0 | 0.0 | 0.00 | 0.00 | 0.00 | 68 | 1016.2 |
| 20260508034007 | 47 | 178 | 0.0 | 0.0 | 0.00 | 0.00 | 0.00 | 67 | 1016.2 |
| 20260508033507 | 47 | 178 | 0.0 | 0.0 | 0.00 | 0.00 | 0.00 | 67 | 1016.2 |
| 20260508033031 | 47 | 178 | 0.0 | 0.0 | 0.00 | 0.00 | 0.00 | 66 | 1016.3 |
| 20260508032510 | 47 | 178 | 0.0 | 0.0 | 0.00 | 0.00 | 0.00 | 66 | 1016.2 |
| 20260508032008 | 47 | 178 | 0.0 | 0.0 | 0.00 | 0.00 | 0.00 | 65 | 1016.3 |
| 20260508031525 | 48 | 178 | 0.0 | 0.0 | 0.00 | 0.00 | 0.00 | 63 | 1016.3 |
| 20260508031011 | 48 | 178 | 0.0 | 0.0 | 0.00 | 0.00 | 0.00 | 63 | 1016.3 |
| 20260508030513 | 48 | 178 | 0.0 | 0.0 | 0.00 | 0.00 | 0.00 | 63 | 1016.4 |
| 20260508030015 | 48 | 178 | 0.0 | 0.0 | 0.00 | 0.00 | 0.00 | 62 | 1016.4 |
| 20260508025507 | 48 | 178 | 0.0 | 0.0 | 0.00 | 0.00 | 0.00 | 61 | 1016.3 |
| 20260508025007 | 49 | 178 | 0.0 | 0.0 | 0.00 | 0.00 | 0.00 | 58 | 1016.3 |
| 20260508024521 | 49 | 178 | 0.0 | 0.0 | 0.00 | 0.00 | 0.00 | 60 | 1016.3 |
| 20260508024008 | 49 | 178 | 0.0 | 0.0 | 0.00 | 0.00 | 0.00 | 60 | 1016.2 |
| 20260508023506 | 50 | 178 | 0.0 | 0.0 | 0.00 | 0.00 | 0.00 | 59 | 1016.2 |
| 20260508023022 | 50 | 178 | 0.0 | 0.0 | 0.00 | 0.00 | 0.00 | 58 | 1016.2 |
| 20260508022510 | 50 | 178 | 0.0 | 0.0 | 0.00 | 0.00 | 0.00 | 57 | 1016.1 |
| 20260508022014 | 50 | 178 | 0.0 | 0.0 | 0.00 | 0.00 | 0.00 | 56 | 1016.2 |
| 20260508021525 | 51 | 178 | 0.0 | 0.0 | 0.00 | 0.00 | 0.00 | 57 | 1016.2 |
| 20260508021017 | 51 | 178 | 0.0 | 0.0 | 0.00 | 0.00 | 0.00 | 55 | 1016.1 |
| 20260508020511 | 51 | 178 | 0.0 | 0.0 | 0.00 | 0.00 | 0.00 | 54 | 1016.0 |
| 20260508020027 | 51 | 178 | 0.0 | 0.0 | 0.00 | 0.00 | 0.00 | 54 | 1016.0 |
| 20260508015511 | 52 | 178 | 0.0 | 0.0 | 0.00 | 0.00 | 0.00 | 56 | 1015.9 |
| 20260508015012 | 52 | 178 | 0.0 | 0.0 | 0.00 | 0.00 | 0.00 | 52 | 1015.7 |
| 20260508014517 | 52 | 178 | 0.0 | 0.0 | 0.00 | 0.00 | 0.00 | 51 | 1015.6 |
| 20260508014013 | 52 | 178 | 0.0 | 0.0 | 0.00 | 0.00 | 0.00 | 53 | 1015.5 |
| 20260508013506 | 53 | 178 | 0.0 | 0.0 | 0.00 | 0.00 | 0.00 | 49 | 1015.5 |
| 20260508013004 | 53 | 178 | 0.0 | 0.0 | 0.00 | 0.00 | 0.00 | 48 | 1015.5 |
| 20260508012506 | 53 | 178 | 0.0 | 0.0 | 0.00 | 0.00 | 0.00 | 46 | 1015.4 |
| 20260508012003 | 53 | 178 | 0.0 | 0.0 | 0.00 | 0.00 | 0.00 | 45 | 1015.3 |
| 20260508011505 | 54 | 178 | 0.0 | 0.0 | 0.00 | 0.00 | 0.00 | 45 | 1015.3 |
| 20260508011005 | 54 | 178 | 0.0 | 0.0 | 0.00 | 0.00 | 0.00 | 44 | 1015.2 |
| 20260508010503 | 55 | 178 | 0.0 | 0.0 | 0.00 | 0.00 | 0.00 | 43 | 1015.1 |
| 20260508010020 | 55 | 178 | 0.0 | 0.0 | 0.00 | 0.00 | 0.00 | 46 | 1015.1 |
| 20260508005505 | 55 | 178 | 0.0 | 0.0 | 0.00 | 0.00 | 0.00 | 45 | 1015.0 |
| 20260508005006 | 56 | 178 | 0.0 | 0.0 | 0.00 | 0.00 | 0.00 | 41 | 1015.0 |
| 20260508004529 | 56 | 178 | 0.0 | 0.9 | 0.00 | 0.00 | 0.00 | 38 | 1015.0 |
| 20260508004010 | 56 | 178 | 0.0 | 1.7 | 0.00 | 0.00 | 0.00 | 39 | 1015.0 |
| 20260508003509 | 57 | 178 | 0.0 | 1.7 | 0.00 | 0.00 | 0.00 | 39 | 1014.9 |
| 20260508003025 | 57 | 208 | 0.0 | 0.0 | 0.00 | 0.00 | 0.00 | 35 | 1014.8 |
| 20260508002507 | 57 | 208 | 0.0 | 0.0 | 0.00 | 0.00 | 0.00 | 36 | 1014.8 |
| 20260508002010 | 58 | 208 | 0.0 | 3.5 | 0.00 | 0.00 | 0.00 | 34 | 1014.7 |
| 20260508001505 | 58 | 208 | 0.0 | 3.5 | 0.00 | 0.00 | 0.00 | 33 | 1014.6 |
| 20260508001004 | 58 | 209 | 0.0 | 4.3 | 0.00 | 0.00 | 0.00 | 33 | 1014.6 |